CamptonHillsWeather.com

Find the Weather for any City, State  
or Zipcode, or Country:

Campton Hills, IL Weather
Local Radar

Local Radar

Graphs, Details
Graphs and Gauges
Detailed Weather
Detailed Reports
Ajax Version (old)
Central Kane Co Summary
Davis Current Weather Graphs
Davis 24 Hour Weather History

CW3778 Data

Weather Underground
Maps
Temperature
Heat Index
Windchill
Humidity
Radar
Dew Point
Wind
Visibility
Visible Satellite
Satellite
Fronts
Snow Depth
Jet Stream
Flight Rules
Forecast Maps
Temperature Forecast
Maximum Temperature Forecast
Minimum Temperature Forecast
Dewpoint Forecast
Prevalent Weather
12Hr Probability of Precip.
Sky Cover
Health Maps
UV Forecast
Air Quality
Peak Air Quality Index
Weather Station
Davis Instruments Vantage Pro
Current Conditions [Select Refresh to Update]

Updated: 9:07pm on 7/21/16

(location)
Currently:
70.7F

Clear
heavy thunderstorm rain mist

High: 93.7 F< 
(3:45pm
Low: 70.7 F 
(9:06pm)
Wind: NE 4 mph
Light Breeze
Gust: 7 mph
Today's High Wind: 20 mph (8:48pm)
Humidity: 94%
Pressure: 30.00 in  (Rising
Pressure Rate: 0.039 in/hr
Dew Point: 68.9F
Wind Chill: 70.7 F
Heat Index (feels like): 76.9 F
Comfort Level: Comfortable
Temperature Rate:  -8.94F/hr
 
5 Day Forecast
 
Fri Sat Sun Mon Tue
Clear Clear Clear Clear Clear
Chance T-storms Chance T-storms Chance T-storms Partly Cloudy Mostly Cloudy
94 91 91 86 85
73 73 70 66 66

Records and Normals
 
Temperature Forecast Normal Record
High 94 85 97
(2011)
Low 73 63 52
(2007)
 
Links
 
 
Weather Advisories
Full Advisory Text...
Weather Map

Web Cam

Almanac
 
Sunrise:  
5:39am
Moonrise: 
9:27pm

Moon Phase:
98%

Sunset: 
8:24pm
Moonset:  
7:27am
 Star Chart...
Rainfall Totals
Hourly Rain 0.94 in
Daily Rain: 0.94 in
Monthly Rain: 2.42 in
Yearly Rain: 20.16 in
Normal Rain, month to date: 2.06 in
Normal Rain, year to date: 19.48 in
Link to Village of Campton Hills Map

Link to Counties of Illinois Map

Local Weather Exchange Network
Station ID City 
(Click for Map Location)
Neighborhood 
(Click for History)
Last Update (Date & Time) Temperature
 ()
Dew
Point ()
Humidity 
(%)
Wind 
(mph)
from the Wind Gust 
(mph) 
Pressure(in) Hourly
Rain(in)
KILSAINT20 Saint Charles Knoll Creek Drive 07/21 20:59:03 80.8 73.0 76 0 North 0 29.96 0.00
KILSAINT17 Saint Charles Glen Oak Lane 07/21 20:56:19 80.1 70.0 71 0 North 0 30.01 0.00
KILSAINT10 Saint Charles Saint Charles Burr Road 07/21 20:49:27 70.9 70.0 98 10 WNW 0 29.99 0.00
KILSTCHA10 St. Charles Hunt Club 07/21 20:59:48 73.0 61.0 66 8 NNE 10 30.04 2.20
KILSAINT8 Saint Charles St. Charles Near West Side 07/21 20:49:27 76.3 68.0 76 2 North 0 30.01 0.00
KILWAYNE4 Wayne Hampton Course 07/21 20:56:24 79.5 72.0 77 0 North 0 30.02 0.00
KILCAMPT3 Campton Hills Campton Hills 07/21 20:41:22 75.3 69.0 80 5 East 7 30.01 0.21
KILSAINT6 Saint Charles 3 Lakes 07/21 20:28:17 77.5 68.0 72 4 NE 0 29.99 0.00
KILSOUTH10 South Elgin East Thornwood Drive 07/21 20:59:02 77.2 69.0 75 0 North 0 30.04 0.49
KILSAINT9 Saint Charles Fox Chase 07/21 21:00:07 73.4 72.0 96 0 WSW 2 30.06 1.70
KILGENEV6 Geneva Dover Ridge 07/21 21:00:10 71.5 69.0 91 9 NE 9 29.96 0.54
KILELBUR18 Elburn Elodie Drive 07/21 20:55:38 80.6 71.0 72 0 North 0 30.00 0.00
KILGENEV10 Geneva Southampton Drive 07/21 20:57:33 76.1 73.0 91 0 North 0 30.01 0.02
KILSTCHA8 St. Charles Ronzheimer Ave. & S. Tyler Rd. 07/21 21:00:06 73.1 69.0 87 2 NNW 27 29.97 0.60
KILGENEV18 Geneva downtown 07/21 20:59:39 72.1 69.0 91 11 NNE 16 29.97 3.28
KILGENEV3 Geneva Mill Creek (Blackberry Way) 07/21 21:00:02 72.0 69.0 91 10 North 24 29.96 0.23
KILSTCHA1 St Charles CamptonHillsWeather.com Central Kane County 07/21 20:59:43 70.8 69.0 94 3 NNE 7 30.00 0.94
KILGENEV17 Geneva Geneva 07/21 20:58:19 76.5 72.0 86 0 North 0 30.01 0.00
KILSOUTH5 South Elgin Concord Park 07/21 20:44:05 71.6 70.0 94 4 NNE 0 30.00 0.00
KILWAYNE7 Wayne Honey Hill 07/21 20:57:20 71.4 71.0 99 0 North 0 30.07 0.00
KILGENEV2 Geneva Mill Creek 07/21 20:55:40 71.4 -35.0 0 1 NW 10 30.00 0.22
KILBATAV13 Batavia Blackhawk Dr, Batavia 07/21 20:59:41 75.2 73.0 92 10 NNE 12 30.05 2.27
KILELBUR11 Elburn Cheval de Selle 07/21 20:53:07 70.5 69.0 94 10 NNE 0 29.99 0.00
KILBATAV16 Batavia Park Street 07/21 20:59:34 72.0 69.0 91 4 SSW 0 29.96 0.00
KILELBUR13 Elburn Hicks Drive 07/21 20:55:24 85.1 64.0 48 0 North 0 29.99 0.00
KILBATAV1 Batavia Tri-Cities on the Fox River 07/21 20:59:04 82.0 69.0 64 10 NNE 15 29.98 0.30
KILELGIN16 Elgin Providence Subdivision 07/21 20:58:26 70.3 68.0 91 2 WNW 0 30.02 0.00
KILELBUR10 Elburn Prairie Valley North 07/21 20:59:49 70.0 67.0 90 11 NE 15 29.98 0.66
KILELGIN20 Elgin Williamsburg Drive 07/21 20:58:05 74.1 67.0 79 0 North 0 30.02 0.32
KILBATAV10 Batavia Deerpath Road 07/21 20:56:30 79.3 72.0 79 0 North 0 30.01 0.01
KILELBUR9 Elburn Griffith Avenue 07/21 20:56:29 79.3 71.0 76 0 North 0 30.01 0.00
KILELBUR5 Elburn Prairie Highlands 07/21 20:55:15 71.6 70.0 93 5 NNE 21 29.97 0.37
KILMAPLE5 Maple Park 47 Cell Tower 07/21 20:59:19 71.1 71.0 99 3 North 5 30.02 0.00
KILELBUR17 Elburn Elburn 07/21 21:00:10 71.2 69.0 94 0 WSW 2 30.03 0.00
KDPA Chicago DuPage Official Station 07/21 20:57:00 71.0 68.0 90 37 North --- 30.05 ---
KARR Aurora Official Station 07/21 20:52:00 76.0 67.0 74 16 North --- 29.99 ---
KDKB DeKalb Official Station 07/21 20:35:00 70.0 68.0 93 15 North --- 30.05 ---
KORD Chicago Official Station 07/21 20:55:00 73.0 70.0 90 12 North --- 30.04 ---
Full Advisory Text
No Warnings

Ambient Weather and Weather Underground
 Never base important decisions on this or any weather information obtained from the Internet
Updated Automatically by Ambient Weather's Virtual Weather Station  V13.01